Location: Miles
(41.4492°N, 81.6087°W)
Time: 16:04:18
(UTC+00:00)

Vanguard 1 Rocket - Pass Details

Date: 17 September 2024
Orbit: 650 x 4218 km, 34.3° (Epoch: 07 October)

Event Time Altitude Azimuth Distance (km) Brightness Sun altitude
Rises 10:11:09 0° 255° (WSW) 5,679 - -11.6°
Reaches altitude 10° 10:14:11 10° 253° (WSW) 5,038 - -11.1°
Exits shadow 10:14:48 12° 252° (WSW) 4,919 10.4 -10.9°
Maximum altitude 10:30:33 70° 174° (S) 3,711 10.4 -8.1°
Drops below altitude 10° 10:56:22 10° 97° (E) 7,407 13.8 -3.3°
Sets 11:02:04 0° 96° (E) 8,335 14.6 -2.2°
